Location: Anuling
(14.1239°N, 120.8922°E)
Time: 01:57:01
(UTC+00:00)

GPS 2-17 Rocket1 - Pass Details

Date: 11 April 2026
Orbit: 544 x 613 km, 20.3° (Epoch: 19 May)

Event Time Altitude Azimuth Distance (km) Brightness Sun altitude
Rises 10:39:24 0° 279° (W) 2,858 9.1 -8.0°
Reaches altitude 10° 10:41:53 10° 287° (WNW) 1,954 7.3 -8.6°
Maximum altitude 10:46:10 39° 356° (N) 916 4.1 -9.6°
Drops below altitude 10° 10:50:26 10° 65° (ENE) 1,937 5.1 -10.6°
Enters shadow 10:50:39 - 66° (ENE) 2,017 5.2 -10.6°
